FW2418 Weather Reports


time (UTC)temp
C
wind
direction
speed
KPH
gust
KPH
rain 1hr
cm
rain 24hr
cm
rain mn
cm
humidity
%
barometer
mb
20260510072846 21 99 0.0 0.0 0.00 0.53 0.00 99 1011.3
20260510071845 21 98 0.0 0.0 0.00 0.53 0.00 99 1011.3
20260510070844 21 98 0.0 0.0 0.00 0.53 0.00 99 1011.3
20260510065843 21 99 0.0 0.0 0.00 0.53 0.00 99 1011.3
20260510064842 21 98 0.0 0.0 0.00 0.53 0.00 99 1011.3
20260510063841 21 98 0.0 0.0 0.00 0.53 0.00 99 1011.3
20260510062840 21 98 0.0 0.0 0.00 0.53 0.00 99 1011.7
20260510061839 21 98 0.0 0.0 0.00 0.53 0.00 99 1011.7
20260510060838 21 98 0.0 0.0 0.00 0.53 0.00 99 1011.7
20260510055836 21 98 0.0 0.0 0.00 0.53 0.00 99 1011.7
20260510054836 21 98 0.0 0.0 0.00 0.53 0.00 99 1012.0
20260510053835 21 99 0.0 0.0 0.00 0.53 0.00 99 1012.0
20260510052833 21 98 0.0 0.0 0.00 0.53 0.00 99 1012.3
20260510051832 21 99 0.0 1.6 0.00 0.53 0.00 99 1012.3
20260510050832 21 99 0.0 1.6 0.00 0.53 0.00 99 1012.3
20260510045831 21 99 0.0 0.0 0.00 0.53 0.00 98 1012.7
20260510044830 21 99 0.0 0.0 0.00 0.53 0.00 98 1012.7
20260510043829 21 99 0.0 0.0 0.00 0.53 0.00 98 1012.7
20260510042829 22 99 0.0 0.0 0.00 0.53 0.00 98 1012.7
20260510041828 22 99 0.0 0.0 0.00 0.53 0.00 98 1012.7
20260510040827 22 99 0.0 0.0 0.00 0.53 0.00 98 1012.7
20260510035826 22 99 0.0 0.0 0.00 0.53 0.53 98 1012.7
20260510034825 22 98 0.0 0.0 0.00 0.53 0.53 98 1012.7
20260510033824 22 98 0.0 0.0 0.00 0.53 0.53 98 1012.3
20260510032823 22 98 0.0 0.0 0.00 0.53 0.53 98 1012.3
20260510031822 22 98 0.0 0.0 0.00 0.53 0.53 98 1012.3
20260510030750 22 98 0.0 0.0 0.00 0.53 0.53 99 1012.3
20260510025717 22 98 0.0 0.0 0.00 0.53 0.53 99 1012.3
20260510024716 22 77 0.0 0.0 0.00 0.53 0.53 99 1012.3
20260510023715 22 77 0.0 0.0 0.00 0.53 0.53 99 1012.3
20260510022643 22 77 0.0 0.0 0.00 0.53 0.53 99 1012.3
20260510021642 22 78 0.0 0.0 0.00 0.53 0.53 99 1012.3
20260510020641 22 77 0.0 1.6 0.00 0.53 0.53 99 1012.3
20260510015641 22 58 0.0 0.0 0.00 0.53 0.53 99 1012.3
20260510014609 22 336 0.0 0.0 0.00 0.53 0.53 99 1012.3
20260510013537 22 336 0.0 0.0 0.00 0.53 0.53 99 1012.0
20260510012536 22 336 0.0 0.0 0.00 0.56 0.53 99 1012.0
20260510011504 22 336 0.0 0.0 0.00 0.76 0.53 99 1012.0
20260510010506 22 335 0.0 1.6 0.00 1.07 0.53 98 1011.6
20260510004717 22 336 1.6 1.6 0.00 1.14 0.53 98 1011.6
20260510003716 23 333 1.6 1.6 0.00 1.14 0.53 98 1011.3
20260510002644 23 285 1.6 1.6 0.00 1.47 0.53 98 1010.9
20260510001644 23 283 1.6 1.6 0.00 2.57 0.53 98 1011.3
20260510000643 23 284 0.0 1.6 0.00 2.57 0.53 98 1010.9
20260509235642 23 29 1.6 1.6 0.00 2.57 0.53 97 1010.6
20260509234641 23 32 1.6 1.6 0.00 2.57 0.53 97 1010.9
20260509233640 23 354 1.6 4.8 0.00 2.57 0.53 97 1010.6
20260509232639 23 70 3.2 4.8 0.00 2.57 0.53 97 1010.6
20260509231639 23 46 1.6 4.8 0.00 2.57 0.53 97 1010.3
20260509230638 23 22 1.6 8.0 0.00 2.57 0.53 97 1010.3
20260509225637 23 29 1.6 9.7 0.00 2.57 0.53 97 1010.3
20260509224636 23 26 3.2 11.3 0.00 2.57 0.53 97 1009.9
20260509223635 24 31 3.2 9.7 0.00 2.57 0.53 97 1009.9
20260509222634 24 32 3.2 11.3 0.00 2.57 0.53 96 1009.9
20260509221531 24 27 3.2 12.9 0.00 2.57 0.53 97 1009.9
20260509220459 24 18 3.2 12.9 0.10 2.57 0.53 97 1009.9
20260509215427 24 53 1.6 8.0 0.30 2.57 0.53 97 1009.6
20260509214426 23 66 1.6 8.0 0.53 2.57 0.53 97 1009.6
20260509213354 24 25 3.2 9.7 0.53 2.57 0.53 96 1009.6
20260509212321 24 17 1.6 6.4 0.53 2.57 0.53 96 1009.6
20260509211321 24 25 3.2 4.8 0.53 2.57 0.53 95 1009.6
20260509210320 25 338 0.0 11.3 0.43 2.46 0.43 92 1010.3
20260509205248 27 310 3.2 12.9 0.13 2.16 0.13 86 1009.9
20260509204247 30 315 3.2 11.3 0.00 2.03 0.00 68 1009.3
20260509203246 31 312 3.2 12.9 0.00 2.03 0.00 61 1008.6
20260509202245 32 316 1.6 3.2 0.00 2.03 0.00 56 1008.6
20260509201244 32 308 1.6 3.2 0.00 2.03 0.00 56 1008.6
20260509200243 32 274 1.6 4.8 0.00 2.03 0.00 56 1008.6
20260509195140 32 297 1.6 6.4 0.00 2.03 0.00 56 1008.6
20260509194139 32 256 1.6 11.3 0.00 2.03 0.00 55 1008.9
20260509193138 32 298 3.2 11.3 0.00 2.03 0.00 55 1008.6
20260509192137 32 302 1.6 6.4 0.00 2.03 0.00 55 1008.9
20260509191136 33 305 3.2 6.4 0.00 2.03 0.00 53 1008.9
20260509190135 33 271 1.6 6.4 0.00 2.03 0.00 53 1009.3
20260509185134 32 279 3.2 8.0 0.00 2.03 0.00 54 1009.3
20260509184133 33 271 3.2 9.7 0.00 2.03 0.00 53 1009.6
20260509183132 33 224 3.2 9.7 0.00 2.03 0.00 53 1009.6
20260509182131 32 276 3.2 8.0 0.00 2.03 0.00 54 1010.0
20260509181131 32 271 3.2 8.0 0.00 2.03 0.00 55 1010.0
20260509180130 33 281 3.2 11.3 0.00 2.03 0.00 55 1010.0
20260509175129 32 182 4.8 11.3 0.00 2.03 0.00 56 1010.0
20260509174128 32 248 3.2 8.0 0.00 2.03 0.00 56 1010.3
20260509173127 32 307 1.6 8.0 0.00 2.03 0.00 57 1010.3
20260509172055 32 275 4.8 12.9 0.00 2.03 0.00 57 1010.0
20260509171054 33 220 1.6 12.9 0.00 2.03 0.00 57 1010.0
20260509170053 32 200 1.6 6.4 0.00 2.03 0.00 60 1010.3
20260509165052 32 193 3.2 6.4 0.00 2.03 0.00 60 1010.3
20260509164051 32 281 1.6 6.4 0.00 2.03 0.00 60 1010.3
20260509163050 32 243 1.6 9.7 0.00 2.03 0.00 62 1010.6
20260509162049 32 271 1.6 11.3 0.00 2.03 0.00 64 1010.6
20260509161048 31 173 3.2 11.3 0.00 2.03 0.00 64 1010.6
20260509160047 31 248 1.6 11.3 0.00 2.03 0.00 65 1010.6
20260509155046 31 221 1.6 11.3 0.00 2.03 0.00 65 1010.6
20260509154045 31 250 1.6 12.9 0.00 2.03 0.00 66 1011.0
20260509153044 31 206 3.2 11.3 0.00 2.03 0.00 67 1011.0
20260509152043 30 224 3.2 11.3 0.00 2.03 0.00 69 1011.0
20260509151042 29 247 1.6 8.0 0.00 2.03 0.00 75 1011.3
20260509145939 28 181 3.2 9.7 0.00 2.03 0.00 85 1011.3
20260509144907 26 180 1.6 9.7 0.00 2.03 0.00 95 1011.3
20260509143906 26 123 3.2 9.7 0.00 2.03 0.00 96 1011.3
20260509142905 25 159 3.2 9.7 0.00 2.03 0.00 96 1011.3
20260509141904 25 203 1.6 8.0 0.00 2.03 0.00 96 1011.0
20260509140832 25 159 3.2 8.0 0.00 2.03 0.00 97 1011.0
20260509135831 25 173 4.8 8.0 0.00 2.03 0.00 97 1010.9
20260509134830 25 188 3.2 8.0 0.00 2.03 0.00 97 1010.9
20260509133829 25 126 1.6 6.4 0.00 2.03 0.00 98 1010.6
20260509132828 25 162 3.2 4.8 0.00 2.03 0.00 98 1010.9
20260509131827 24 101 3.2 4.8 0.00 2.03 0.00 98 1010.9
20260509130826 24 146 1.6 1.6 0.00 2.03 0.00 99 1010.9
20260509125825 23 121 0.0 3.2 0.00 2.03 0.00 99 1010.9
20260509124824 23 113 1.6 4.8 0.00 2.03 0.00 99 1010.9
20260509123823 23 205 0.0 4.8 0.00 2.03 0.00 100 1010.9
20260509122751 23 18 0.0 1.6 0.00 2.03 0.00 100 1010.9
20260509121750 23 115 1.6 1.6 0.00 2.03 0.00 100 1010.9
20260509120750 23 147 0.0 1.6 0.00 2.03 0.00 100 1010.6
20260509115748 22 148 0.0 0.0 0.00 2.03 0.00 100 1010.6
20260509114747 22 148 0.0 1.6 0.00 2.03 0.00 100 1010.6
20260509113747 21 148 0.0 1.6 0.00 2.03 0.00 100 1010.6
20260509112746 21 19 0.0 1.6 0.00 2.03 0.00 100 1010.6
20260509111744 21 19 0.0 0.0 0.00 2.03 0.00 100 1010.6
20260509110743 21 19 0.0 1.6 0.00 2.03 0.00 100 1010.6
20260509105743 21 19 0.0 1.6 0.00 2.03 0.00 100 1010.6
20260509104742 21 15 0.0 0.0 0.00 2.03 0.00 100 1010.6
20260509103741 21 15 0.0 1.6 0.00 2.03 0.00 100 1010.6
20260509102740 21 347 0.0 1.6 0.00 2.03 0.00 100 1010.6
20260509101740 21 347 0.0 1.6 0.00 2.03 0.00 100 1010.6
20260509100708 21 347 0.0 1.6 0.00 2.03 0.00 100 1010.3
20260509095706 21 347 0.0 1.6 0.00 2.03 0.00 100 1010.6
20260509094634 21 347 0.0 1.6 0.00 2.03 0.00 100 1010.3
20260509093633 21 354 0.0 0.0 0.00 2.03 0.00 100 1010.3
20260509092633 21 354 0.0 1.6 0.00 2.03 0.00 100 1010.3
20260509091631 21 354 0.0 1.6 0.00 2.03 0.00 100 1010.3
20260509090631 21 79 0.0 0.0 0.00 2.03 0.00 100 1010.3
20260509085630 21 79 0.0 1.6 0.00 2.03 0.00 100 1010.6
20260509084558 21 79 0.0 1.6 0.00 2.03 0.00 100 1010.6
20260509083557 21 81 0.0 1.6 0.00 2.03 0.00 100 1010.3
20260509082525 21 34 0.0 1.6 0.00 2.03 0.00 100 1010.6
20260509081452 21 15 0.0 1.6 0.00 2.03 0.00 100 1010.6
20260509080451 21 32 0.0 1.6 0.00 2.03 0.00 100 1010.6
20260509075451 21 103 0.0 1.6 0.00 2.03 0.00 100 1010.6
20260509074419 21 18 0.0 1.6 0.00 2.03 0.00 100 1010.6